{"data":{"norad_id":58284,"intl_designator":"2023-174AE","name":"FLOCK 4Q-26","alt_names":[],"object_type":"PAYLOAD","status":"ACTIVE","operator":null,"country":"US","launch_date":"2023-11-11","launch_site_code":"AFWTR","launch_vehicle":null,"mission":null,"orbit_class":"UNKNOWN","rcs_meters":null,"size_class":null,"mass_kg":null,"dimensions":null,"purposes":["earth_obs"],"wikipedia_slug":null,"has_3d_model":false,"image_url":null,"decayed_at":null,"tle_current":{"epoch":"2026-05-25T04:40:26.781888Z","epoch_age_seconds":68607,"freshness":"FRESH","line1":"1 58284U 23174AE  26145.19475442  .00032794  00000+0  47846-3 0  9994","line2":"2 58284  97.3869 236.8584 0005828 217.9724 142.1120 15.55601602142258","mean_motion":15.55601602,"eccentricity":0.0005828,"inclination_deg":97.3869,"raan_deg":236.8584,"arg_perigee_deg":217.9724,"mean_anomaly_deg":142.112,"bstar":0.00047846,"rev_number":14225,"period_min":92.568688419234,"perigee_km":396.45387628734,"apogee_km":404.3549441551,"semimajor_km":6778.5414102212,"source":"CELESTRAK","updated_at":"2026-05-25T13:38:13.298934Z"}}}